Printer-friendly version

IAU Minor Planet Center

Minor Planet Center

MPEC 2002-C43 : 2002 CR11

The following Minor Planet Electronic Circular may be linked-to from your own Web pages, but must not otherwise be redistributed electronically.


Read MPEC 2002-C42 Read MPEC 2002-C44


M.P.E.C. 2002-C43                                Issued 2002 Feb. 8, 18:43 UT

     The Minor Planet Electronic Circulars contain information on unusual
         minor planets and routine data on comets.  They are published
   on behalf of Commission 20 of the International Astronomical Union by the
          Minor Planet Center, Smithsonian Astrophysical Observatory,
                          Cambridge, MA 02138, U.S.A.

             Prepared using the Tamkin Foundation Computer Network

                              MPC@CFA.HARVARD.EDU
          URL http://cfa-www.harvard.edu/iau/mpc.html  ISSN 1523-6714

                                   2002 CR11

Observations:
     K02C11R* C2002 02 06.36223 11 26 07.97 +06 41 51.9          18.5 R      699
     K02C11R  C2002 02 06.38422 11 26 02.43 +06 40 29.4                      699
     K02C11R  C2002 02 06.40624 11 25 56.86 +06 39 08.5                      699
     K02C11R  C2002 02 06.42832 11 25 51.31 +06 37 44.7                      699
     K02C11R  C2002 02 07.05493 11 23 21.13 +05 59 05.8          18.8 R      966
     K02C11R  C2002 02 07.06669 11 23 18.28 +05 58 24.2          19.1 R      966
     K02C11R  C2002 02 07.38618 11 22 01.80 +05 39 12.9          19.2        704
     K02C11R  C2002 02 07.40102 11 21 58.06 +05 38 18.9          19.5        704
     K02C11R  C2002 02 07.43015 11 21 50.82 +05 36 33.9          19.4        704
     K02C11R  C2002 02 07.44485 11 21 47.17 +05 35 40.6          19.6        704
     K02C11R  C2002 02 08.34226 11 18 15.89 +04 42 26.1          19.0 R      649
     K02C11R  C2002 02 08.34485 11 18 15.41 +04 42 19.7          19.0 R      649
     K02C11R  C2002 02 08.34705 11 18 14.63 +04 42 09.9          18.9 R      649
     K02C11R  C2002 02 08.35147 11 18 13.65 +04 41 54.3          18.5 R      649

Observer details:
649 Powell Observatory, Louisburg.  Observers K. Smalley, R. Fredrick,
    R. Trentman, S. Granger.  0.75-m Newtonian + CCD.
699 Lowell Observatory-LONEOS.  Observer B. W. Koehn.  Measurers B. W. Koehn,
    W. S. Kelly.  0.59-m LONEOS Schmidt + CCD.
704 Lincoln Laboratory ETS, New Mexico.  Observers M. Blythe, F. Shelly,
    M. Bezpalko, R. Huber, L. Manguso, S. Adams, J. Piscitelli.  Measurers
    J. Stuart, R. Sayer, J. B. Evans, H. Viggh.  1.0-m f/2.15 reflector + CCD.
966 Church Stretton.  Observer S. P. Laurie.  0.35-m f/11 Schmidt-Cassegrain
    + CCD.

Orbital elements:
2002 CR11
Epoch 2002 Jan. 26.0 TT = JDT 2452300.5                 MPC
M  10.75109              (2000.0)            P               Q
n   0.25615246     Peri.  121.53297     +0.01737144     -0.98053614
a   2.4554835      Node   325.75761     +0.75831939     +0.14040175
e   0.5851567      Incl.   20.33797     +0.65165169     -0.13724517
P   3.85           H   20.4           G   0.15
From 14 observations 2002 Feb. 6-8.

Ephemeris:
2002 CR11                a,e,i = 2.46, 0.59, 20                  q = 1.0186
Date    TT    R. A. (2000) Decl.     Delta      r     Elong.  Phase     V
2002 01 26    12 14.61   +19 57.3    0.245    1.151   127.9    42.4    19.3
2002 02 05    11 31.67   +08 08.5    0.265    1.213   145.4    27.5    19.2
2002 02 15    10 53.93   -01 00.7    0.308    1.281   159.6    15.6    19.2
2002 02 25    10 24.94   -06 50.1    0.375    1.354   163.8    11.7    19.6
2002 03 07    10 05.60   -10 02.4    0.462    1.431   157.8    15.2    20.3
2002 03 17    09 54.81   -11 36.5    0.565    1.509   149.4    19.6    21.0
2002 03 27    09 50.90   -12 17.8    0.682    1.588   141.2    23.2    21.7
2002 04 06    09 52.11   -12 34.9    0.811    1.667   133.6    25.8    22.2

Timothy B. Spahr             (C) Copyright 2002 MPC           M.P.E.C. 2002-C43

Read MPEC 2002-C42 Read MPEC 2002-C44


Our Web policy. Index to the CBAT/MPC/ICQ pages.


Valid HTML 4.01!